DW4379 Weather Reports


Display with metric or nautical units.
time (UTC)temp
F
wind
direction
speed
MPH
gust
MPH
rain 1hr
in
rain 24hr
in
rain mn
in
humidity
%
barometer
mb
20260904015503 86 0 0.0 0.0 0.00 0.00 0.00 79 1013.0
20260904015008 86 0 0.0 0.0 0.00 0.00 0.00 79 1013.0
20260904014503 86 0 0.0 0.0 0.00 0.00 0.00 79 1013.0
20260904014004 86 0 0.0 0.0 0.00 0.00 0.00 79 1013.0
20260904013503 86 0 0.0 0.0 0.00 0.00 0.00 79 1012.9
20260904013004 86 0 0.0 0.0 0.00 0.00 0.00 78 1012.8
20260904012504 86 0 0.0 0.0 0.00 0.00 0.00 78 1012.9
20260904012004 87 0 0.0 0.0 0.00 0.00 0.00 78 1012.9
20260904011504 87 0 0.0 0.0 0.00 0.00 0.00 77 1012.8
20260904011003 87 0 0.0 0.0 0.00 0.00 0.00 77 1012.8
20260904010503 88 0 0.0 0.0 0.00 0.00 0.00 77 1012.8
20260904010004 88 0 0.0 0.0 0.00 0.00 0.00 76 1012.7
20260904005504 89 0 0.0 0.0 0.00 0.00 0.00 76 1012.7
20260904005003 89 0 0.0 0.0 0.00 0.00 0.00 75 1012.6
20260904004504 89 0 0.0 0.0 0.00 0.00 0.00 75 1012.6
20260904004004 90 0 0.0 0.0 0.00 0.00 0.00 74 1012.5
20260904003504 90 0 0.0 0.0 0.00 0.00 0.00 74 1012.6
20260904003004 91 0 0.0 0.0 0.00 0.00 0.00 73 1012.4
20260904002503 91 0 0.0 0.0 0.00 0.00 0.00 72 1012.4
20260904002004 92 0 0.0 0.0 0.00 0.00 0.00 71 1012.4
20260904001504 92 0 0.0 0.0 0.00 0.00 0.00 68 1012.3
20260904001003 93 0 0.0 0.0 0.00 0.00 0.00 69 1012.3
20260904000717 93 0 0.0 0.0 0.00 0.00 0.00 68 1012.3
20260904000004 94 0 0.0 0.0 0.00 0.00 0.00 63 1012.3
20260903235504 94 0 0.0 0.0 0.00 0.00 0.00 61 1012.2
20260903235004 95 0 0.0 0.0 0.00 0.00 0.00 60 1012.3
20260903234504 95 0 0.0 0.0 0.00 0.00 0.00 58 1012.3
20260903234004 95 0 0.0 0.0 0.00 0.00 0.00 57 1012.3
20260903233503 96 0 0.0 0.0 0.00 0.00 0.00 57 1012.3
20260903233004 96 0 0.0 0.0 0.00 0.00 0.00 57 1012.2
20260903232503 96 0 0.0 0.0 0.00 0.00 0.00 57 1012.3
20260903232004 96 0 0.0 0.0 0.00 0.00 0.00 57 1012.3
20260903231504 97 0 0.0 0.0 0.00 0.00 0.00 57 1012.2
20260903231003 97 0 0.0 0.0 0.00 0.00 0.00 57 1012.2
20260903230504 97 0 0.0 0.0 0.00 0.00 0.00 56 1012.1
20260903230004 97 0 0.0 0.0 0.00 0.00 0.00 56 1012.2
20260903225719 97 0 0.0 0.0 0.00 0.00 0.00 56 1012.2
20260903225004 97 0 0.0 0.0 0.00 0.00 0.00 55 1012.2
20260903224504 97 0 0.0 0.0 0.00 0.00 0.00 54 1012.2
20260903224004 98 0 0.0 0.0 0.00 0.00 0.00 56 1012.2
20260903223504 98 0 0.0 0.0 0.00 0.00 0.00 54 1012.2
20260903223003 98 0 0.0 0.0 0.00 0.00 0.00 54 1012.1
20260903222503 98 0 0.0 0.0 0.00 0.00 0.00 53 1012.2
20260903222217 98 0 0.0 0.0 0.00 0.00 0.00 54 1012.2
20260903221504 98 0 0.0 0.0 0.00 0.00 0.00 55 1012.2
20260903221003 98 0 0.0 0.0 0.00 0.00 0.00 53 1012.2
20260903220504 97 0 0.0 0.0 0.00 0.00 0.00 53 1012.2
20260903220004 97 0 0.0 0.0 0.00 0.00 0.00 53 1012.2
20260903215503 98 247 0.0 1.0 0.00 0.00 0.00 55 1012.2
20260903215004 97 120 0.0 3.0 0.00 0.00 0.00 54 1012.2
20260903214504 97 111 0.0 4.0 0.00 0.00 0.00 53 1012.3
20260903214003 97 111 1.0 4.0 0.00 0.00 0.00 53 1012.3
20260903213503 97 115 1.0 4.0 0.00 0.00 0.00 52 1012.3
20260903213004 97 116 1.0 4.0 0.00 0.00 0.00 53 1012.3
20260903212718 98 125 1.0 4.0 0.00 0.00 0.00 52 1012.3
20260903212003 98 163 1.0 3.0 0.00 0.00 0.00 51 1012.4
20260903211504 99 165 1.0 3.0 0.00 0.00 0.00 51 1012.5
20260903211004 99 161 0.0 2.0 0.00 0.00 0.00 51 1012.5
20260903210504 99 176 0.0 3.0 0.00 0.00 0.00 50 1012.4
20260903210004 99 226 0.0 3.0 0.00 0.00 0.00 50 1012.5
20260903205504 100 217 0.0 2.0 0.00 0.00 0.00 49 1012.7
20260903205003 100 201 0.0 2.0 0.00 0.00 0.00 50 1012.6
20260903204503 99 241 0.0 2.0 0.00 0.00 0.00 50 1012.7
20260903204003 99 261 0.0 2.0 0.00 0.00 0.00 50 1012.7
20260903203504 99 204 0.0 3.0 0.00 0.00 0.00 52 1012.8
20260903203217 99 202 0.0 3.0 0.00 0.00 0.00 50 1012.8
20260903202718 99 175 0.0 3.0 0.00 0.00 0.00 51 1012.8
20260903202003 99 265 0.0 2.0 0.00 0.00 0.00 53 1012.8
20260903201503 99 302 0.0 2.0 0.00 0.00 0.00 51 1012.9
20260903201003 100 235 0.0 2.0 0.00 0.00 0.00 51 1012.9
20260903200503 99 198 0.0 2.0 0.00 0.00 0.00 49 1013.0
20260903200003 100 205 0.0 3.0 0.00 0.00 0.00 49 1013.0
20260903195503 99 219 0.0 3.0 0.00 0.00 0.00 52 1013.1
20260903195003 99 236 0.0 2.0 0.00 0.00 0.00 51 1013.1
20260903194504 99 225 0.0 2.0 0.00 0.00 0.00 52 1013.2
20260903194003 99 221 0.0 4.0 0.00 0.00 0.00 52 1013.3
20260903193717 98 224 0.0 4.0 0.00 0.00 0.00 51 1013.4
20260903193004 98 270 0.0 1.0 0.00 0.00 0.00 54 1013.5
20260903192503 98 79 0.0 3.0 0.00 0.00 0.00 53 1013.5
20260903192218 98 99 0.0 3.0 0.00 0.00 0.00 53 1013.5
20260903191503 98 245 0.0 3.0 0.00 0.00 0.00 53 1013.7
20260903191003 98 244 0.0 2.0 0.00 0.00 0.00 52 1013.7
20260903190504 98 254 0.0 2.0 0.00 0.00 0.00 53 1013.7
20260903190004 98 298 0.0 2.0 0.00 0.00 0.00 53 1013.7
20260903185717 97 286 1.0 2.0 0.00 0.00 0.00 53 1013.8
20260903185004 98 249 0.0 3.0 0.00 0.00 0.00 53 1013.8
20260903184503 98 248 0.0 2.0 0.00 0.00 0.00 53 1013.7
20260903184003 98 214 1.0 3.0 0.00 0.00 0.00 55 1013.8
20260903183503 98 155 0.0 3.0 0.00 0.00 0.00 55 1013.8
20260903183003 97 237 0.0 1.0 0.00 0.00 0.00 55 1013.9
20260903182504 96 315 0.0 3.0 0.00 0.00 0.00 56 1013.9
20260903182004 96 288 0.0 3.0 0.00 0.00 0.00 56 1014.0
20260903181503 96 261 0.0 3.0 0.00 0.00 0.00 56 1014.0
20260903181004 96 269 0.0 5.0 0.00 0.00 0.00 57 1014.1
20260903180504 96 270 1.0 5.0 0.00 0.00 0.00 55 1014.1
20260903180004 96 280 0.0 2.0 0.00 0.00 0.00 56 1014.1
20260903175503 96 261 0.0 2.0 0.00 0.00 0.00 56 1014.2
20260903175004 96 258 0.0 2.0 0.00 0.00 0.00 56 1014.2
20260903174723 96 263 0.0 2.0 0.00 0.00 0.00 56 1014.3
20260903174004 96 271 0.0 3.0 0.00 0.00 0.00 57 1014.4
20260903173504 96 275 0.0 2.0 0.00 0.00 0.00 57 1014.4
20260903173003 96 271 0.0 2.0 0.00 0.00 0.00 57 1014.4
20260903172719 96 266 0.0 2.0 0.00 0.00 0.00 56 1014.5
20260903172003 96 209 0.0 3.0 0.00 0.00 0.00 57 1014.5
20260903171503 96 213 0.0 3.0 0.00 0.00 0.00 56 1014.5
20260903171003 96 236 0.0 2.0 0.00 0.00 0.00 57 1014.6
20260903170503 96 241 0.0 2.0 0.00 0.00 0.00 59 1014.6
20260903170218 95 238 0.0 2.0 0.00 0.00 0.00 58 1014.6
20260903165504 95 243 0.0 3.0 0.00 0.00 0.00 59 1014.7
20260903165003 95 235 0.0 3.0 0.00 0.00 0.00 59 1014.9
20260903164504 95 232 0.0 2.0 0.00 0.00 0.00 58 1014.9
20260903164217 95 246 0.0 2.0 0.00 0.00 0.00 59 1014.9
20260903163504 94 259 0.0 3.0 0.00 0.00 0.00 59 1015.0
20260903163003 94 253 0.0 3.0 0.00 0.00 0.00 59 1015.0
20260903162503 94 221 0.0 1.0 0.00 0.00 0.00 61 1015.0
20260903162004 94 233 0.0 1.0 0.00 0.00 0.00 62 1015.0
20260903161718 94 241 0.0 2.0 0.00 0.00 0.00 62 1015.1
20260903161003 93 245 0.0 2.0 0.00 0.00 0.00 62 1015.1
20260903160503 92 248 0.0 2.0 0.00 0.00 0.00 63 1015.2
20260903160003 92 144 0.0 3.0 0.00 0.00 0.00 64 1015.1
20260903155718 92 151 0.0 3.0 0.00 0.00 0.00 65 1015.1
20260903155004 91 191 0.0 1.0 0.00 0.00 0.00 66 1015.1
20260903154503 91 231 0.0 4.0 0.00 0.00 0.00 67 1015.2
20260903154003 91 226 0.0 4.0 0.00 0.00 0.00 67 1015.3
20260903153503 90 154 0.0 2.0 0.00 0.00 0.00 68 1015.1
20260903153004 90 145 1.0 3.0 0.00 0.00 0.00 68 1015.1
20260903152503 90 172 1.0 3.0 0.00 0.00 0.00 68 1015.3
20260903152217 90 175 1.0 4.0 0.00 0.00 0.00 69 1015.1
20260903151503 89 217 0.0 4.0 0.00 0.00 0.00 69 1015.1
20260903151003 89 216 0.0 3.0 0.00 0.00 0.00 69 1015.0
20260903150718 88 215 0.0 3.0 0.00 0.00 0.00 69 1015.1
20260903150003 88 210 0.0 1.0 0.00 0.00 0.00 70 1015.1
20260903145504 88 230 0.0 1.0 0.00 0.00 0.00 72 1015.0
20260903145003 87 137 0.0 1.0 0.00 0.00 0.00 73 1015.1
20260903144503 87 141 0.0 3.0 0.00 0.00 0.00 74 1015.1
20260903144004 87 169 1.0 4.0 0.00 0.00 0.00 74 1015.1
20260903143718 86 187 1.0 4.0 0.00 0.00 0.00 73 1015.0
20260903143004 86 159 0.0 2.0 0.00 0.00 0.00 74 1015.1
20260903142718 86 136 0.0 3.0 0.00 0.00 0.00 75 1015.1
20260903142003 85 116 0.0 3.0 0.00 0.00 0.00 75 1015.1
20260903141503 85 0 0.0 0.0 0.00 0.00 0.00 76 1015.1
20260903141003 84 234 0.0 2.0 0.00 0.00 0.00 77 1015.1
20260903140717 84 231 0.0 2.0 0.00 0.00 0.00 77 1015.1
20260903140004 84 236 0.0 1.0 0.00 0.00 0.00 77 1015.1
20260903135503 83 227 0.0 1.0 0.00 0.00 0.00 78 1015.2
20260903135003 83 224 0.0 2.0 0.00 0.00 0.00 78 1015.2
20260903134717 83 229 0.0 2.0 0.00 0.00 0.00 79 1015.2
20260903134003 82 231 0.0 3.0 0.00 0.00 0.00 78 1015.3
20260903133504 82 223 0.0 3.0 0.00 0.00 0.00 79 1015.3
20260903133218 82 215 0.0 3.0 0.00 0.00 0.00 79 1015.3
20260903132503 82 178 0.0 1.0 0.00 0.00 0.00 80 1015.3
20260903132004 82 0 0.0 0.0 0.00 0.00 0.00 80 1015.3
20260903131717 82 0 0.0 0.0 0.00 0.00 0.00 80 1015.3
20260903131004 81 178 0.0 1.0 0.00 0.00 0.00 80 1015.4
20260903130503 81 178 0.0 1.0 0.00 0.00 0.00 80 1015.4
20260903130003 81 178 0.0 1.0 0.00 0.00 0.00 80 1015.5
20260903125503 81 0 0.0 0.0 0.00 0.00 0.00 80 1015.5
20260903125003 81 0 0.0 0.0 0.00 0.00 0.00 80 1015.4
20260903124504 81 174 0.0 1.0 0.00 0.00 0.00 80 1015.4
20260903124003 81 174 0.0 1.0 0.00 0.00 0.00 80 1015.4
20260903123504 81 0 0.0 0.0 0.00 0.00 0.00 81 1015.4
20260903123218 80 0 0.0 0.0 0.00 0.00 0.00 81 1015.5
20260903122717 80 0 0.0 0.0 0.00 0.00 0.00 83 1015.4
20260903122003 78 0 0.0 0.0 0.00 0.00 0.00 85 1015.4
20260903121503 78 0 0.0 0.0 0.00 0.00 0.00 85 1015.4
20260903121003 78 0 0.0 0.0 0.00 0.00 0.00 85 1015.4
20260903120503 77 0 0.0 0.0 0.00 0.00 0.00 86 1015.4
20260903120004 77 0 0.0 0.0 0.00 0.00 0.00 86 1015.4
20260903115503 77 0 0.0 0.0 0.00 0.00 0.00 86 1015.3
20260903115003 77 0 0.0 0.0 0.00 0.00 0.00 87 1015.4
20260903114503 76 0 0.0 0.0 0.00 0.00 0.00 87 1015.3
20260903114218 76 0 0.0 0.0 0.00 0.00 0.00 87 1015.3
20260903113503 76 0 0.0 0.0 0.00 0.00 0.00 88 1015.3
20260903113003 76 0 0.0 0.0 0.00 0.00 0.00 88 1015.2
20260903112503 76 0 0.0 0.0 0.00 0.00 0.00 88 1015.2
20260903112217 76 0 0.0 0.0 0.00 0.00 0.00 88 1015.1
20260903111503 76 0 0.0 0.0 0.00 0.00 0.00 89 1015.1
20260903111004 76 0 0.0 0.0 0.00 0.00 0.00 89 1015.1
20260903110504 76 0 0.0 0.0 0.00 0.00 0.00 89 1015.1
20260903110004 76 0 0.0 0.0 0.00 0.00 0.00 89 1015.0
20260903105503 76 0 0.0 0.0 0.00 0.00 0.00 89 1015.0
20260903105003 76 0 0.0 0.0 0.00 0.00 0.00 89 1015.0
20260903104503 76 0 0.0 0.0 0.00 0.00 0.00 89 1014.8
20260903104217 76 0 0.0 0.0 0.00 0.00 0.00 89 1014.8
20260903103503 76 0 0.0 0.0 0.00 0.00 0.00 89 1014.8
20260903103003 76 0 0.0 0.0 0.00 0.00 0.00 89 1014.8
20260903102504 76 0 0.0 0.0 0.00 0.00 0.00 89 1014.8
20260903102003 76 0 0.0 0.0 0.00 0.00 0.00 89 1014.7
20260903101718 76 0 0.0 0.0 0.00 0.00 0.00 89 1014.8
20260903101217 76 0 0.0 0.0 0.00 0.00 0.00 88 1014.8
20260903100718 76 0 0.0 0.0 0.00 0.00 0.00 88 1014.8
20260903100004 76 0 0.0 0.0 0.00 0.00 0.00 87 1014.7
20260903095503 76 0 0.0 0.0 0.00 0.00 0.00 87 1014.7
20260903095217 77 0 0.0 0.0 0.00 0.00 0.00 87 1014.7
20260903094718 77 0 0.0 0.0 0.00 0.00 0.00 86 1014.7
20260903094003 77 0 0.0 0.0 0.00 0.00 0.00 87 1014.6
20260903093503 77 0 0.0 0.0 0.00 0.00 0.00 87 1014.7
20260903093003 77 0 0.0 0.0 0.00 0.00 0.00 87 1014.7
20260903092503 77 0 0.0 0.0 0.00 0.00 0.00 86 1014.7
20260903092004 77 0 0.0 0.0 0.00 0.00 0.00 86 1014.7
20260903091717 77 0 0.0 0.0 0.00 0.00 0.00 86 1014.6
20260903091004 78 0 0.0 0.0 0.00 0.00 0.00 85 1014.7
20260903090503 78 0 0.0 0.0 0.00 0.00 0.00 85 1014.7
20260903090004 78 0 0.0 0.0 0.00 0.00 0.00 85 1014.6
20260903085717 78 0 0.0 0.0 0.00 0.00 0.00 85 1014.6
20260903085003 78 0 0.0 0.0 0.00 0.00 0.00 84 1014.6
20260903084503 78 0 0.0 0.0 0.00 0.00 0.00 84 1014.6
20260903084004 78 0 0.0 0.0 0.00 0.00 0.00 84 1014.6
20260903083504 79 0 0.0 0.0 0.00 0.00 0.00 83 1014.6
20260903083003 79 0 0.0 0.0 0.00 0.00 0.00 82 1014.6
20260903082503 79 0 0.0 0.0 0.00 0.00 0.00 81 1014.6
20260903082003 80 0 0.0 0.0 0.00 0.00 0.00 80 1014.6
20260903081503 80 0 0.0 0.0 0.00 0.00 0.00 80 1014.6
20260903081003 80 0 0.0 0.0 0.00 0.00 0.00 80 1014.6
20260903080503 80 0 0.0 0.0 0.00 0.00 0.00 80 1014.6
20260903080004 80 0 0.0 0.0 0.00 0.00 0.00 80 1014.5
20260903075503 80 0 0.0 0.0 0.00 0.00 0.00 80 1014.5
20260903075003 80 0 0.0 0.0 0.00 0.00 0.00 80 1014.5
20260903074717 80 0 0.0 0.0 0.00 0.00 0.00 80 1014.5
20260903074004 80 0 0.0 0.0 0.00 0.00 0.00 80 1014.5
20260903073504 80 0 0.0 0.0 0.00 0.00 0.00 80 1014.5
20260903073003 80 0 0.0 0.0 0.00 0.00 0.00 80 1014.5
20260903072504 80 0 0.0 0.0 0.00 0.00 0.00 80 1014.6
20260903072004 80 0 0.0 0.0 0.00 0.00 0.00 80 1014.5
20260903071503 80 0 0.0 0.0 0.00 0.00 0.00 80 1014.5
20260903071008 80 0 0.0 0.0 0.00 0.00 0.00 79 1014.5
20260903070503 80 0 0.0 0.0 0.00 0.00 0.00 79 1014.5
20260903070218 80 0 0.0 0.0 0.00 0.00 0.00 79 1014.5
20260903065504 80 0 0.0 0.0 0.00 0.00 0.00 79 1014.5
20260903065004 80 0 0.0 0.0 0.00 0.00 0.00 79 1014.5
20260903064503 81 0 0.0 0.0 0.00 0.00 0.00 78 1014.5
20260903064218 81 0 0.0 0.0 0.00 0.00 0.00 78 1014.5
20260903063504 81 0 0.0 0.0 0.00 0.00 0.00 78 1014.5
20260903063003 81 0 0.0 0.0 0.00 0.00 0.00 78 1014.5
20260903062503 81 0 0.0 0.0 0.00 0.00 0.00 78 1014.6
20260903062217 81 0 0.0 0.0 0.00 0.00 0.00 77 1014.7
20260903061503 82 0 0.0 0.0 0.00 0.00 0.00 77 1014.6
20260903061003 82 0 0.0 0.0 0.00 0.00 0.00 77 1014.7
20260903060503 82 0 0.0 0.0 0.00 0.00 0.00 76 1014.6
20260903060003 82 0 0.0 0.0 0.00 0.00 0.00 76 1014.7
20260903055503 82 0 0.0 0.0 0.00 0.00 0.00 76 1014.7
20260903055004 82 0 0.0 0.0 0.00 0.00 0.00 76 1014.6
20260903054718 82 0 0.0 0.0 0.00 0.00 0.00 75 1014.6
20260903054004 82 0 0.0 0.0 0.00 0.00 0.00 75 1014.6
20260903053503 82 0 0.0 0.0 0.00 0.00 0.00 75 1014.6
20260903053003 83 0 0.0 0.0 0.00 0.00 0.00 75 1014.5
20260903052504 83 0 0.0 0.0 0.00 0.00 0.00 75 1014.5
20260903052217 83 0 0.0 0.0 0.00 0.00 0.00 75 1014.5
20260903051503 83 0 0.0 0.0 0.00 0.00 0.00 74 1014.4
20260903051217 83 0 0.0 0.0 0.00 0.00 0.00 74 1014.3
20260903050503 83 0 0.0 0.0 0.00 0.00 0.00 74 1014.3
20260903050003 83 0 0.0 0.0 0.00 0.00 0.00 74 1014.3
20260903045503 83 0 0.0 0.0 0.00 0.00 0.00 73 1014.2
20260903045004 83 0 0.0 0.0 0.00 0.00 0.00 73 1014.2
20260903044718 84 0 0.0 0.0 0.00 0.00 0.00 73 1014.2
20260903044003 84 0 0.0 0.0 0.00 0.00 0.00 73 1014.2
20260903043503 84 0 0.0 0.0 0.00 0.00 0.00 73 1014.2
20260903043003 84 0 0.0 0.0 0.00 0.00 0.00 73 1014.1
20260903042503 84 0 0.0 0.0 0.00 0.00 0.00 73 1014.1
20260903042004 84 0 0.0 0.0 0.00 0.00 0.00 73 1014.1
20260903041503 84 0 0.0 0.0 0.00 0.00 0.00 72 1014.1
20260903041003 84 0 0.0 0.0 0.00 0.00 0.00 72 1014.0
20260903040503 84 249 0.0 1.0 0.00 0.00 0.00 73 1013.9
20260903040009 85 249 0.0 1.0 0.00 0.00 0.00 72 1014.0
20260903035504 85 0 0.0 0.0 0.00 0.00 0.00 72 1013.9
20260903035218 85 0 0.0 0.0 0.00 0.00 0.00 72 1013.9
20260903034503 85 0 0.0 0.0 0.00 0.00 0.00 72 1013.9
20260903034003 85 0 0.0 0.0 0.00 0.00 0.00 71 1013.9
20260903033503 86 0 0.0 0.0 0.00 0.00 0.00 72 1013.9
20260903033004 86 0 0.0 0.0 0.00 0.00 0.00 71 1013.9
20260903032504 86 0 0.0 0.0 0.00 0.00 0.00 71 1013.9
20260903032003 86 0 0.0 0.0 0.00 0.00 0.00 71 1014.0
20260903031504 86 0 0.0 0.0 0.00 0.00 0.00 71 1014.0
20260903031004 86 0 0.0 0.0 0.00 0.00 0.00 71 1014.0
20260903030717 86 0 0.0 0.0 0.00 0.00 0.00 71 1014.0
20260903030003 87 0 0.0 0.0 0.00 0.00 0.00 71 1014.1
20260903025503 87 0 0.0 0.0 0.00 0.00 0.00 70 1014.1
20260903025004 87 0 0.0 0.0 0.00 0.00 0.00 71 1014.1
20260903024503 87 0 0.0 0.0 0.00 0.00 0.00 70 1014.1
20260903024003 87 0 0.0 0.0 0.00 0.00 0.00 70 1014.2
20260903023503 87 0 0.0 0.0 0.00 0.00 0.00 69 1014.1
20260903023003 88 0 0.0 0.0 0.00 0.00 0.00 69 1014.1
20260903022717 88 0 0.0 0.0 0.00 0.00 0.00 69 1014.1
20260903022004 88 0 0.0 0.0 0.00 0.00 0.00 69 1014.0
20260903021503 88 0 0.0 0.0 0.00 0.00 0.00 69 1014.0
20260903021003 88 0 0.0 0.0 0.00 0.00 0.00 70 1014.0
20260903020503 88 0 0.0 0.0 0.00 0.00 0.00 69 1014.0
20260903020004 88 0 0.0 0.0 0.00 0.00 0.00 70 1013.9